Theta_e
347 345 340 336 338 340 341 341 340 339 339 340 341 342 343 344 344 344 344 343 342 342 342 342 342 342 343 342 342 345 348 348 347 347 347 348 349 348 347 345 342 341 342 344 346 347 348 349 348 348 346 345 344 343 343 343 343 343 344 345 346 347 348 348 349 349 348 348 348 348 348 348 347 347 347 347 347 346 346 344 343 341 338 336 335
347 346 342 335 335 338 340 341 341 339 339 339 340 340 341 341 343 344 344 343 343 342 342 342 343 342 342 343 343 343 346 349 348 347 347 348 349 348 346 343 341 341 342 345 347 348 349 349 349 347 346 345 344 343 343 344 344 344 344 345 346 346 346 346 347 348 349 348 348 348 348 347 347 347 347 346 346 345 344 342 341 340 337 334 334
347 348 346 339 335 335 338 340 340 340 339 338 337 337 337 339 342 344 344 344 344 342 342 342 343 343 342 343 344 345 347 349 349 348 348 348 349 349 347 344 342 341 343 346 348 349 349 349 348 347 346 345 344 344 344 344 344 344 344 344 345 346 346 346 347 348 348 348 348 348 347 346 346 346 346 345 344 343 342 340 340 340 339 336 335
346 347 347 344 340 335 336 338 339 340 340 338 337 335 335 337 341 343 344 344 343 343 342 342 342 343 341 341 345 347 348 349 349 349 348 349 349 349 348 345 343 343 345 347 348 348 348 348 347 346 345 345 344 344 344 344 344 343 344 345 346 346 347 347 347 348 348 348 348 347 346 345 345 345 344 344 343 342 341 340 339 339 339 338 337
346 346 346 346 343 338 335 335 337 339 339 339 339 338 338 338 340 342 343 343 342 342 342 342 342 342 339 339 345 348 348 349 349 349 349 349 349 349 348 347 347 347 348 348 348 348 348 347 346 345 345 344 343 343 343 344 344 345 345 346 346 347 347 347 347 347 347 348 347 347 345 345 344 344 341 340 341 340 339 338 338 337 337 337 337
346 347 346 346 346 343 338 334 333 336 337 339 339 339 340 341 341 341 342 342 341 341 341 341 341 340 338 341 345 348 347 348 349 349 349 350 350 349 349 349 349 349 349 349 349 349 348 348 347 346 344 344 343 344 344 345 345 346 346 346 347 347 346 346 346 346 347 347 347 347 344 342 342 341 338 336 337 338 338 337 336 335 335 336 333
347 346 346 347 347 347 344 339 335 334 334 336 337 338 338 339 340 341 341 341 341 341 341 340 339 339 340 343 346 347 347 348 348 349 349 350 350 349 349 349 350 350 350 350 351 350 350 350 349 346 345 344 344 344 345 346 346 346 346 347 346 345 345 345 344 345 346 346 345 345 343 341 340 338 336 335 335 335 335 335 335 333 333 332 330
347 346 345 346 347 348 349 347 344 340 336 334 335 336 337 337 337 338 339 339 339 339 339 338 338 339 341 343 346 347 348 348 348 349 349 349 350 350 350 350 350 350 350 350 350 351 350 350 349 347 345 345 345 345 346 346 347 346 346 346 345 344 343 342 343 344 345 344 343 343 342 340 338 338 336 334 333 332 330 330 332 330 329 329 326
347 347 345 345 346 347 348 349 348 347 345 340 335 334 335 335 336 336 337 337 337 337 338 338 338 339 341 344 345 348 349 349 349 349 349 349 350 350 350 350 350 350 350 350 351 351 351 349 347 346 345 345 346 346 346 346 346 346 345 343 342 342 341 342 343 343 343 343 343 342 341 339 338 338 336 334 333 332 328 327 329 327 326 326 324
347 347 347 346 346 346 347 348 348 348 349 346 340 334 332 333 334 335 335 336 336 336 337 338 337 338 341 344 345 348 349 349 349 349 349 349 350 350 350 350 350 350 350 350 351 351 350 348 346 346 346 346 347 346 345 345 345 344 342 341 341 341 341 343 343 341 341 342 343 341 340 340 339 338 337 335 334 332 329 328 328 326 324 325 324
347 347 347 346 346 346 347 347 348 347 348 347 344 339 335 333 333 332 332 333 333 334 335 336 335 335 340 345 346 348 349 349 349 349 348 349 350 350 350 349 350 351 350 349 350 350 349 346 345 346 346 347 346 344 343 342 342 342 341 340 341 341 342 342 341 339 340 342 341 340 340 340 339 337 336 334 333 332 330 329 328 326 325 325 323
348 347 347 346 346 347 347 348 348 348 348 347 346 344 341 338 336 334 333 332 332 332 332 333 332 333 340 347 348 348 349 349 349 348 348 349 349 350 350 349 350 350 349 348 349 349 348 346 346 346 346 346 345 343 342 341 340 341 340 340 340 340 340 341 340 339 341 341 340 339 338 337 337 335 333 332 331 330 329 328 327 327 325 321 318
350 349 349 348 348 347 347 348 349 349 349 348 347 347 346 344 342 340 338 337 336 337 336 334 331 333 341 347 348 348 349 348 349 348 348 348 349 350 350 350 350 349 347 348 349 350 349 347 347 347 346 344 343 341 341 340 340 340 339 339 339 338 339 339 339 339 339 339 338 338 336 334 333 332 330 329 328 327 325 325 324 322 318 313 310
351 351 351 350 349 349 348 348 349 349 350 350 350 350 349 348 347 345 344 342 343 344 344 341 336 335 341 347 348 348 348 348 348 348 348 348 348 349 350 350 350 349 348 348 350 351 350 348 348 347 344 342 341 341 340 340 340 338 338 338 337 337 337 336 336 336 335 334 334 334 332 328 325 323 322 320 320 318 315 315 314 311 308 306 306
349 349 349 350 350 350 349 349 348 348 349 350 350 350 350 350 349 348 348 347 346 346 347 347 343 339 342 347 348 348 348 348 348 348 348 348 348 348 349 350 350 350 349 349 349 350 348 348 348 346 343 342 341 340 340 340 338 337 336 336 335 334 333 332 331 329 329 329 328 326 322 317 313 312 311 310 310 308 307 306 306 304 304 304 305
345 346 346 348 348 349 348 348 348 347 347 347 347 348 349 350 349 348 348 349 348 347 347 349 347 345 344 346 347 348 348 348 347 347 347 348 347 347 347 348 350 351 350 349 349 348 347 348 347 344 343 343 342 340 340 339 335 334 334 334 331 329 326 324 322 321 321 321 318 315 312 309 307 306 306 305 305 304 304 303 303 303 303 304 305
343 343 343 345 346 347 347 347 347 348 348 347 347 346 347 349 349 348 347 348 348 348 348 348 348 348 348 347 347 347 347 347 347 347 347 347 348 346 345 345 348 350 350 350 349 348 347 347 346 343 343 342 341 340 339 334 332 332 332 330 326 324 320 317 315 314 313 311 310 309 307 306 305 304 303 303 303 303 303 304 303 303 304 304 304
342 342 342 344 345 346 347 347 347 349 349 349 349 348 348 348 348 348 348 347 347 347 348 348 348 348 349 349 348 347 347 347 347 346 346 346 347 347 345 345 345 348 350 351 350 349 348 347 344 343 343 342 341 340 336 331 329 329 328 325 322 320 318 316 313 311 308 307 307 306 305 304 303 303 303 302 302 302 303 304 304 304 305 304 304
341 342 342 343 344 344 346 347 348 348 349 349 350 350 350 350 349 348 348 347 347 347 348 348 347 348 348 348 349 348 348 347 347 347 346 346 346 346 346 346 345 347 349 351 351 348 346 345 344 343 343 343 340 337 332 328 326 325 324 322 320 318 315 312 309 308 307 306 306 305 304 304 303 303 302 302 302 302 303 304 303 304 304 304 303
341 341 342 343 343 344 345 346 347 348 349 349 349 349 350 350 350 349 348 348 348 347 347 347 347 347 347 347 347 348 348 348 348 347 346 345 345 345 346 346 346 348 350 351 350 346 343 344 344 342 342 340 337 332 328 325 324 323 321 319 318 315 310 307 306 306 306 306 305 304 303 303 302 302 302 302 302 302 303 303 304 304 303 302 302
338 338 340 342 343 344 344 344 345 346 346 347 347 348 349 349 348 349 350 350 349 348 347 348 348 348 348 347 347 347 347 347 347 347 346 346 347 347 348 348 347 348 350 350 349 347 344 344 343 341 339 337 333 328 325 323 322 321 318 316 314 311 309 307 307 306 306 305 304 304 303 302 302 301 301 301 302 302 303 304 304 303 302 301 301
338 337 339 341 343 344 344 344 343 344 345 344 345 346 347 347 348 348 349 349 349 349 349 349 349 349 349 348 347 347 346 346 345 345 344 346 347 348 348 348 347 346 348 349 349 347 345 343 342 338 334 332 330 327 324 322 320 318 315 313 312 310 309 308 308 306 305 305 304 303 302 302 301 301 301 302 303 303 304 304 303 302 302 301 301
339 338 339 341 342 343 344 344 343 344 344 344 344 345 345 346 347 347 348 349 349 350 350 350 350 350 350 349 348 348 347 346 346 345 344 345 347 348 347 347 348 347 347 349 348 346 344 343 340 333 328 327 327 326 323 320 316 314 313 312 311 310 309 308 308 307 305 304 303 302 301 301 301 301 302 302 303 303 303 303 303 303 302 302 301
340 339 338 339 341 342 342 342 341 341 342 341 342 343 343 344 344 344 345 346 347 348 349 349 349 349 349 349 349 348 349 349 349 349 348 346 346 347 346 347 348 348 349 349 347 345 344 341 335 329 325 324 324 322 319 316 314 314 313 312 311 310 309 308 308 306 304 303 303 302 301 301 301 302 302 303 303 303 303 304 304 304 303 302 301
341 341 339 338 340 341 341 341 340 339 338 338 339 340 340 341 341 342 343 345 346 346 346 347 347 347 347 347 347 348 349 349 349 350 348 347 346 346 346 348 350 349 348 349 347 343 341 338 332 327 325 323 320 318 316 315 315 314 313 312 312 311 309 307 306 305 303 303 302 302 302 302 302 303 303 303 303 303 304 304 304 303 302 301 300
341 342 341 339 339 340 341 341 339 336 335 337 339 340 341 341 341 342 343 343 343 343 343 344 345 345 345 345 346 346 347 347 348 346 343 343 344 341 337 339 347 349 347 346 342 338 336 336 332 326 322 319 317 315 316 316 316 314 313 313 312 309 307 306 305 303 302 302 302 302 302 302 303 304 303 304 304 304 303 303 303 302 302 301 300
340 341 341 340 339 339 340 341 338 334 335 338 341 341 340 339 337 337 338 338 338 338 338 339 340 339 339 340 341 342 343 343 342 339 336 335 338 336 332 332 339 344 342 338 336 334 334 333 328 323 319 317 316 316 317 317 315 313 313 312 310 307 305 304 303 302 302 302 302 302 303 303 304 304 304 304 304 303 302 302 302 302 301 300 300
341 341 341 341 340 339 340 341 337 333 333 337 339 339 337 335 334 334 336 337 338 338 337 337 337 336 336 337 338 340 340 338 337 336 333 332 333 333 332 333 336 339 337 334 333 332 330 327 323 320 318 318 318 318 318 316 314 312 311 310 307 305 304 302 302 301 301 302 302 302 303 304 304 304 304 303 303 302 302 302 301 301 300 300 300
340 340 341 341 340 340 341 341 337 332 331 333 335 336 335 335 335 335 335 335 336 336 338 339 337 335 336 336 337 338 338 336 335 334 334 332 331 330 331 332 335 336 334 334 333 330 326 322 321 320 320 319 319 318 316 314 312 311 309 306 305 303 302 301 301 301 301 302 302 302 303 304 304 303 303 302 302 301 301 301 300 300 300 300 301
340 340 339 339 339 340 341 341 338 333 331 332 333 334 335 335 336 336 335 334 334 334 336 338 337 336 335 335 336 337 336 335 335 335 334 333 333 331 331 333 335 335 333 333 332 328 323 321 321 322 322 320 318 314 312 311 310 308 305 304 302 302 301 301 301 301 302 302 302 302 302 303 303 302 302 302 301 300 300 300 300 300 300 300 301
339 339 339 338 339 339 339 341 339 333 332 333 334 334 335 336 336 337 336 335 334 334 335 336 336 336 336 336 336 336 334 333 334 335 334 334 334 332 332 334 335 334 332 331 329 325 321 321 323 324 323 319 314 309 307 306 305 303 302 302 301 301 301 301 301 301 302 302 302 302 302 302 302 302 301 301 300 300 300 300 300 300 300 301 301
338 338 338 338 339 338 338 339 338 334 333 334 335 335 336 337 337 337 336 335 334 335 336 336 335 335 336 337 336 334 333 333 335 335 335 335 335 334 334 334 334 332 331 330 326 322 320 322 325 325 320 313 308 306 306 305 304 303 302 301 301 301 301 301 301 301 301 301 302 302 302 302 302 301 301 301 300 300 300 300 300 300 300 301 301
335 335 335 335 336 337 337 337 336 335 334 335 336 337 337 337 337 337 336 335 334 334 336 337 335 335 336 335 334 333 333 335 336 336 335 335 335 334 334 333 332 330 328 327 323 321 322 324 323 319 312 307 307 310 311 310 308 306 303 301 301 301 301 301 301 301 301 301 302 302 302 302 301 301 301 300 300 300 300 300 300 300 300 301 301
333 332 333 333 335 337 336 335 335 335 335 335 337 337 336 336 336 336 335 335 334 334 335 336 335 335 335 334 334 334 335 335 335 334 334 333 333 332 331 330 329 328 326 323 319 318 320 319 315 310 307 308 312 314 313 311 309 306 303 301 301 301 301 301 301 300 300 301 302 302 302 301 301 301 301 300 300 300 300 300 300 300 300 301 301
332 331 332 333 335 336 335 334 334 334 335 336 337 336 335 335 334 334 334 334 334 334 334 334 334 335 335 335 335 335 335 334 333 332 332 331 330 330 329 328 327 326 323 319 314 313 313 312 310 309 309 312 315 315 314 312 309 306 304 302 301 301 301 301 301 300 300 301 302 302 301 301 301 301 301 300 300 300 300 300 300 300 300 300 301
331 331 331 332 334 335 335 333 334 335 336 337 336 335 335 333 331 331 332 333 333 333 333 332 333 334 334 334 334 333 333 332 331 330 330 329 329 328 326 325 323 320 316 313 311 312 312 312 312 313 313 315 315 314 314 313 311 309 307 304 301 301 301 301 300 300 300 301 301 301 301 301 301 301 301 300 300 300 300 300 300 300 300 300 300
331 330 330 331 334 336 335 334 334 336 337 337 336 335 334 332 329 328 329 332 333 332 332 332 332 332 333 332 332 332 331 330 330 329 328 328 327 324 320 317 314 313 312 312 313 314 314 314 315 315 315 315 315 314 314 313 312 311 309 305 302 301 301 300 300 300 300 300 301 301 301 301 301 300 300 300 300 300 300 300 300 300 300 300 300
331 331 330 330 332 335 335 334 333 334 335 336 336 335 334 332 329 327 328 331 332 332 331 331 331 331 331 331 331 330 330 329 329 328 327 325 322 318 314 312 312 313 314 315 315 315 316 316 316 316 316 315 315 314 314 313 313 312 310 306 302 301 300 300 300 300 300 300 300 301 301 301 300 300 300 300 300 301 301 301 300 300 300 299 299
333 332 331 329 330 332 334 335 334 333 334 335 335 335 334 333 330 327 327 330 332 331 331 331 330 330 330 329 329 329 329 328 326 324 322 319 315 312 312 313 314 315 316 316 316 317 318 317 317 317 316 316 315 315 314 313 313 312 311 307 304 301 300 300 300 300 300 300 300 300 300 300 301 301 301 301 301 301 301 301 301 300 300 299 299
334 334 332 330 329 329 332 334 334 333 333 333 334 334 333 333 332 329 327 328 330 331 331 330 329 329 328 326 326 326 324 322 320 318 316 313 311 312 314 316 316 316 317 317 317 318 318 318 318 318 317 316 315 314 314 313 312 312 310 308 305 302 300 300 300 300 300 300 300 300 300 300 300 301 301 301 301 301 301 301 301 300 299 299 299
334 334 333 331 330 329 328 330 332 333 332 332 333 334 333 333 333 331 329 327 327 329 330 330 328 328 326 324 321 321 319 317 314 313 312 312 313 314 316 317 317 317 317 317 318 318 318 318 318 318 317 316 315 314 313 312 312 311 310 308 305 302 301 300 300 300 300 300 300 300 300 300 300 301 301 301 301 301 301 301 301 300 299 299 299
331 333 333 331 330 329 327 327 329 331 331 331 331 333 333 332 332 332 331 328 326 326 328 329 328 327 325 322 319 317 315 314 313 312 312 313 315 317 317 317 317 317 318 319 319 319 318 318 318 318 317 316 315 314 313 312 312 311 311 309 306 303 301 300 300 300 300 300 300 300 300 300 300 301 301 301 301 301 301 301 300 300 299 299 299
330 332 331 329 327 327 325 324 326 329 330 330 330 331 332 332 332 331 331 330 328 326 325 327 328 326 324 320 317 315 313 312 312 313 314 316 317 318 317 317 318 318 319 319 319 318 318 317 317 317 316 315 315 314 313 313 312 311 310 309 307 305 303 302 300 300 300 300 300 300 300 300 300 301 301 301 301 301 301 301 300 299 299 299 300
326 326 325 322 320 319 319 318 321 327 330 330 329 329 329 329 330 331 330 330 330 328 325 324 325 326 324 321 316 314 313 312 312 313 315 317 318 318 317 317 318 319 320 319 318 317 317 317 317 316 315 314 314 313 313 312 311 310 308 307 305 304 303 301 300 300 300 300 300 300 300 300 300 300 301 301 301 301 301 301 300 299 299 299 300
324 321 320 319 318 318 318 317 318 322 326 328 328 328 327 327 327 328 329 329 330 330 328 325 323 324 324 321 317 314 313 313 313 314 316 317 317 317 318 318 318 319 319 318 318 317 317 317 317 316 315 314 313 313 312 312 311 310 309 308 307 306 305 302 301 300 300 300 300 300 300 300 300 300 300 301 301 301 301 301 300 299 299 300 300
327 324 322 322 322 323 323 323 321 320 320 321 322 323 324 325 325 326 327 328 329 329 329 328 325 323 322 320 317 315 314 313 313 314 315 316 317 317 318 318 319 319 319 318 318 318 318 317 317 317 316 315 314 314 313 312 311 311 310 310 310 309 308 306 304 302 301 300 300 299 299 299 300 300 300 301 301 301 301 301 300 299 299 300 300
330 327 325 325 325 325 326 326 326 325 323 321 319 318 318 320 322 324 325 327 328 328 329 329 328 326 324 321 318 315 314 314 314 314 314 315 316 317 317 318 319 319 318 318 318 318 318 317 318 318 318 317 316 315 314 313 312 311 311 311 310 310 309 309 307 305 302 300 299 299 299 299 299 300 300 301 301 301 301 301 300 299 299 300 300
331 330 328 327 326 326 326 326 327 327 326 324 322 320 318 318 319 320 322 324 326 327 328 328 328 328 327 326 323 320 316 314 314 314 314 315 315 315 316 317 318 319 318 318 318 319 318 318 318 318 318 318 317 316 316 315 314 312 312 311 311 311 310 309 309 307 304 301 300 299 299 299 299 300 300 300 300 301 301 300 300 299 299 300 300
332 331 330 329 327 326 325 325 326 326 327 326 325 323 321 319 318 318 319 321 323 324 325 325 326 327 327 327 327 325 322 319 317 316 315 316 316 316 316 316 317 318 318 319 319 319 319 318 318 318 319 319 318 317 317 316 315 314 313 312 311 311 310 310 309 307 305 303 301 299 299 299 299 299 300 300 300 300 301 300 300 299 299 300 300
332 332 331 331 330 328 326 325 324 324 325 326 326 325 324 321 319 317 317 319 321 322 322 322 322 323 324 325 326 327 326 325 323 321 320 318 318 318 318 317 316 317 318 318 319 319 319 319 318 318 319 319 319 318 317 317 316 315 314 313 312 311 311 310 309 308 306 304 302 300 299 299 299 299 299 300 300 300 300 300 299 299 299 300 300
332 332 332 332 331 330 328 326 325 325 324 324 324 325 325 324 322 319 317 317 319 321 321 320 320 321 322 322 323 324 325 325 325 325 324 322 321 320 319 318 317 316 316 317 317 318 319 319 319 319 319 319 319 318 317 317 317 316 315 314 312 312 311 310 309 308 307 305 303 300 299 299 299 299 299 299 300 300 300 300 299 299 299 299 300
Wind_Speed
19 17 18 19 21 23 25 26 27 29 31 32 33 33 33 31 29 27 25 23 21 19 18 18 17 17 15 15 15 16 16 15 16 16 15 14 13 13 14 14 15 14 14 14 13 12 12 11 11 11 11 11 11 12 12 13 14 14 13 12 11 11 11 11 11 13 14 14 13 12 11 10 9 8 8 7 6 5 2 7 10 6 5 8 7
21 19 18 19 20 21 23 25 26 28 29 31 33 34 34 32 31 29 27 26 24 22 19 17 17 17 17 16 17 17 18 16 16 17 16 15 15 15 15 14 14 14 14 14 13 12 12 11 11 11 11 11 12 12 13 13 13 13 12 11 11 11 11 11 11 12 13 13 13 12 12 10 9 10 10 8 6 4 1 5 9 7 7 8 5
22 21 21 21 20 20 22 24 25 26 28 30 32 34 34 33 32 31 29 27 26 24 22 19 18 19 19 18 18 18 18 16 16 17 17 17 16 16 15 15 14 15 15 14 13 13 12 12 12 11 11 12 12 12 13 13 12 12 12 12 12 12 12 11 12 12 13 14 13 12 12 10 8 9 9 7 4 3 2 3 6 6 5 4 2
20 22 23 23 23 22 22 23 25 26 27 29 30 32 32 32 32 31 30 28 27 26 24 21 20 21 22 21 20 19 18 17 17 17 18 18 18 17 17 15 14 15 15 14 14 13 13 12 12 11 11 11 12 12 12 12 13 13 12 13 13 13 13 13 12 12 13 13 11 10 10 8 7 8 8 7 5 3 2 1 2 1 1 4 5
18 21 22 22 23 24 23 23 24 26 27 28 29 30 30 31 31 31 30 29 28 27 25 24 23 23 22 22 22 21 19 18 17 17 18 19 19 18 18 16 15 15 15 15 14 14 13 12 12 12 12 12 12 12 12 12 12 12 13 13 13 13 13 14 13 12 12 11 10 9 9 9 9 9 9 8 7 5 4 2 1 1 3 4 6
18 20 22 22 22 22 22 23 24 25 26 28 29 29 29 30 30 30 30 29 28 27 26 25 24 23 22 22 23 22 20 19 19 18 18 18 18 18 18 17 16 16 16 16 15 15 14 13 13 13 13 13 12 12 12 12 12 13 13 13 13 13 13 13 13 12 10 9 8 9 12 12 11 11 10 9 7 5 4 3 2 0 1 3 4
20 20 21 23 23 22 21 22 22 23 25 26 27 28 29 30 30 30 30 30 29 28 26 24 23 23 23 24 24 22 21 21 21 20 19 18 18 18 18 18 18 17 17 17 16 16 15 15 14 14 13 13 12 12 12 12 12 12 12 12 13 14 14 13 12 10 9 8 8 10 12 13 12 10 8 7 6 5 3 2 1 2 2 3 3
23 20 20 22 24 24 24 23 22 22 24 25 26 27 28 29 30 30 30 30 30 29 27 25 23 23 24 25 24 23 22 22 22 22 21 20 20 19 19 19 19 19 19 19 18 17 16 16 16 14 13 12 12 13 12 12 12 11 11 12 13 14 13 10 8 6 7 8 9 12 13 13 12 10 8 7 6 5 4 2 2 4 5 5 4
26 23 21 22 23 24 26 26 25 23 23 25 26 27 28 29 29 30 31 31 31 30 29 27 25 24 25 26 25 24 23 23 23 23 23 22 22 21 22 22 21 21 21 21 20 18 18 17 16 14 13 13 13 13 12 12 11 11 12 12 12 11 8 5 5 6 7 8 11 14 14 13 12 10 9 9 6 5 5 3 2 5 6 4 3
26 25 25 24 24 24 26 27 27 25 24 24 26 27 28 29 29 30 31 31 32 31 31 31 29 27 27 27 27 26 25 24 24 24 24 24 24 24 24 24 24 24 25 24 22 20 18 18 16 15 14 13 13 12 11 11 11 11 11 10 8 6 3 5 7 6 6 8 10 12 12 12 12 10 8 8 5 4 4 3 3 5 5 4 3
25 27 29 28 27 27 27 28 28 27 25 24 26 27 28 29 29 30 30 31 31 32 33 33 32 30 29 29 28 27 26 25 25 24 25 25 26 25 25 26 27 27 27 25 22 19 18 18 17 15 14 14 13 11 10 10 10 10 9 6 5 3 3 5 6 5 6 7 8 9 9 10 11 10 8 8 7 6 5 4 4 4 5 5 5
23 26 29 29 29 29 29 29 29 30 28 26 25 26 27 28 28 29 30 30 30 31 32 33 32 31 32 31 29 29 28 27 26 26 26 27 28 27 27 28 30 29 26 24 22 20 20 20 17 15 14 13 11 9 9 9 8 7 6 4 5 6 6 4 4 4 5 5 6 8 9 9 10 10 9 9 8 7 6 5 5 5 6 6 5
19 22 24 26 28 29 30 31 30 31 31 29 28 27 27 27 27 28 28 28 29 30 30 31 31 32 33 32 31 30 29 28 27 26 26 28 29 29 29 30 30 28 26 25 25 24 23 21 17 15 13 11 9 8 8 8 7 6 6 6 6 7 8 7 6 5 4 3 5 7 8 8 9 9 8 8 6 5 5 5 6 6 6 5 3
17 19 21 22 25 27 30 33 33 33 33 32 32 31 31 30 29 28 28 27 28 29 29 29 30 32 34 34 32 31 30 28 27 26 26 28 29 30 30 31 31 31 30 27 26 26 23 20 16 14 11 9 9 9 7 7 6 6 7 7 7 9 9 8 7 6 5 5 5 6 8 7 7 7 8 7 6 5 4 4 4 4 4 3 3
15 18 20 21 23 25 28 31 33 35 35 34 34 34 34 34 33 33 31 30 30 30 29 29 30 32 34 35 34 33 31 29 28 27 27 28 29 30 31 31 32 34 31 27 25 24 20 17 14 11 10 9 9 7 5 5 5 7 9 9 10 11 11 9 8 7 6 6 6 6 7 7 6 6 7 6 5 3 2 2 2 3 4 4 4
12 15 17 19 21 23 25 28 30 32 34 35 35 35 35 36 35 35 35 34 33 32 31 31 30 31 34 35 35 35 33 31 29 29 30 30 30 31 32 33 34 33 28 24 23 22 19 17 15 12 11 11 8 5 3 4 5 8 10 11 13 14 13 12 10 9 8 8 8 7 7 7 7 6 5 5 3 2 1 0 1 3 4 5 4
8 10 12 15 17 20 22 24 27 28 29 31 32 33 33 34 35 35 35 35 35 35 35 34 33 33 33 35 36 36 35 33 32 31 32 33 33 33 33 34 35 34 30 26 23 22 21 19 15 13 12 11 8 6 5 4 6 9 12 14 15 15 15 14 12 10 9 9 8 8 8 8 7 5 5 4 3 2 1 1 2 3 4 5 4
6 8 9 11 13 15 16 18 20 21 22 23 26 27 28 29 31 34 36 37 37 37 37 37 37 36 36 36 36 37 37 36 35 35 35 35 35 36 36 36 37 37 34 29 24 24 24 20 15 13 13 12 10 9 7 5 8 11 12 14 15 14 13 13 12 12 11 10 9 8 7 7 6 5 4 3 2 2 1 1 1 2 2 2 2
7 8 9 10 11 12 12 12 14 15 17 19 21 22 24 25 28 31 34 37 37 36 37 39 40 39 38 37 37 38 39 39 39 38 37 37 37 39 40 40 40 40 38 33 28 28 28 22 15 13 15 15 13 11 9 8 9 11 11 10 11 11 12 12 12 12 11 9 8 7 6 5 4 3 2 2 2 2 1 1 1 1 1 2 5
7 9 10 11 11 12 13 13 13 13 14 16 17 18 20 22 26 30 32 34 35 35 36 39 40 40 40 39 37 37 38 38 39 39 38 39 41 42 44 44 42 41 40 36 31 29 27 21 17 16 16 16 15 13 12 11 11 11 10 8 9 11 14 14 12 10 9 8 7 6 5 4 3 3 3 3 3 2 2 1 2 4 4 5 6
6 8 9 10 10 11 11 12 13 13 13 14 15 16 18 21 24 27 29 31 33 34 35 37 39 41 41 39 38 38 36 35 35 35 35 39 43 45 45 45 44 42 40 35 31 29 27 23 20 19 19 18 16 16 16 15 13 12 11 10 11 13 15 14 12 9 8 7 6 6 5 4 4 4 4 3 3 3 2 3 4 5 5 6 7
5 7 7 7 7 8 8 9 11 13 15 16 17 18 20 22 24 24 25 27 30 32 34 37 38 39 40 40 41 41 39 39 40 39 37 38 41 43 44 43 44 44 42 37 33 31 29 25 22 22 22 21 19 19 19 17 14 13 13 13 13 13 13 11 9 9 8 6 5 5 4 4 5 5 5 4 3 3 3 3 4 5 6 7 7
5 5 5 5 5 5 6 8 9 11 13 15 16 18 20 22 23 22 22 23 25 27 29 32 35 37 37 39 41 41 40 41 43 44 42 40 40 41 42 43 46 47 45 40 36 32 29 26 25 25 24 23 20 19 18 16 14 14 14 14 13 12 11 9 8 7 7 5 5 5 5 5 5 5 5 4 3 3 3 3 4 6 7 8 8
7 7 5 4 5 5 5 7 7 9 11 13 14 15 16 17 17 17 18 19 20 22 25 26 29 32 33 35 37 38 37 37 38 40 41 41 41 42 42 43 46 47 45 40 34 32 28 24 23 23 21 19 18 17 17 16 15 15 14 13 12 10 8 7 7 6 6 5 5 6 6 6 6 5 5 4 3 3 3 4 5 7 8 8 8
8 9 7 5 4 5 6 7 8 10 11 9 8 7 8 7 7 8 10 12 14 16 19 21 23 26 29 32 34 36 37 37 37 37 37 38 40 41 43 50 55 52 45 38 32 29 25 20 20 21 19 18 18 17 17 16 15 14 13 11 10 8 7 6 6 6 6 6 6 7 7 7 6 5 4 3 3 3 3 4 5 6 8 8 8
8 8 7 6 5 6 6 6 8 10 6 3 4 3 2 1 1 2 3 5 7 9 12 16 19 21 23 28 31 33 34 34 34 32 30 34 41 37 32 43 57 53 42 36 32 29 25 21 21 22 20 18 18 18 17 17 15 13 12 9 8 7 6 6 5 5 5 6 7 8 8 7 6 5 4 3 2 2 2 3 4 5 7 7 6
6 6 6 6 6 6 6 5 6 5 4 8 8 7 8 8 7 6 4 3 3 6 8 12 15 16 17 19 20 24 26 26 25 23 21 23 28 20 9 19 35 38 34 34 33 28 24 23 23 22 20 19 19 18 18 17 15 14 12 10 8 7 7 6 5 5 5 6 7 8 8 7 6 4 3 1 0 1 1 2 3 4 4 4 3
5 5 5 5 5 5 5 4 4 2 6 12 12 12 12 11 10 9 9 8 6 3 3 5 7 9 8 8 10 14 16 12 9 14 17 15 12 11 10 13 20 25 29 32 31 28 27 26 26 24 23 22 21 20 19 18 16 14 13 11 10 9 8 7 7 6 7 7 7 8 8 7 6 4 3 3 2 2 1 1 1 1 2 2 3
4 4 4 4 4 4 4 3 3 2 7 12 14 13 11 9 8 9 9 10 11 10 8 6 4 3 2 2 4 7 12 15 20 24 23 15 9 7 8 12 20 25 26 24 26 30 31 29 27 26 25 24 23 21 20 18 16 14 13 12 11 10 8 8 8 8 8 8 7 8 8 7 6 5 4 4 4 4 3 3 2 3 4 5 6
3 4 4 3 3 3 3 4 5 5 7 10 11 11 10 9 8 7 7 8 10 11 11 10 6 5 5 4 8 16 21 24 24 23 19 14 11 10 12 19 26 29 28 27 29 32 32 29 28 26 24 24 23 21 20 18 16 15 13 11 10 9 9 9 9 8 8 7 7 7 7 6 6 6 5 4 5 6 6 5 5 6 6 7 8
4 4 4 4 3 3 2 4 6 8 9 10 9 8 8 8 7 6 5 5 7 9 10 10 9 9 9 12 18 23 22 20 22 21 16 14 15 16 19 25 27 28 30 30 30 30 29 28 27 25 23 23 22 20 18 16 14 14 13 12 11 10 10 10 9 8 8 7 7 7 7 6 6 6 5 5 6 7 7 7 7 7 7 8 8
4 3 4 4 4 4 2 3 6 9 11 11 9 7 7 6 7 7 5 4 5 6 7 9 10 10 12 15 18 19 19 18 20 20 19 20 21 22 25 28 28 27 28 26 25 26 27 27 26 25 24 22 20 18 16 14 13 12 12 13 13 12 11 10 9 8 7 7 7 7 7 6 6 5 6 7 8 8 8 8 7 7 7 7 8
2 2 4 4 4 4 2 2 4 7 9 10 8 7 7 6 7 7 6 6 7 7 7 9 10 10 13 14 13 13 17 19 20 20 22 24 25 26 26 27 26 26 25 23 23 25 26 26 26 25 24 22 20 18 15 13 12 11 11 11 12 12 11 9 9 9 8 8 7 7 6 6 5 4 6 8 8 8 9 9 8 8 7 7 7
1 1 3 4 4 2 2 2 3 5 8 9 7 7 7 7 6 7 7 7 8 9 10 12 12 12 13 14 14 14 17 20 20 22 24 25 26 27 28 28 27 25 23 21 22 24 25 25 25 25 24 23 20 17 14 13 11 10 11 11 10 10 10 10 10 10 10 9 8 7 6 5 4 4 5 8 8 9 9 8 8 8 8 7 7
0 1 3 4 3 1 1 3 4 5 8 8 7 6 5 5 4 5 7 8 9 10 11 12 14 14 15 16 16 17 19 20 21 22 24 25 27 28 29 29 29 27 24 21 20 21 23 24 24 25 24 22 18 14 13 12 11 9 9 9 9 9 10 10 10 10 10 10 9 8 7 5 4 4 5 7 8 9 9 8 8 7 8 8 7
1 2 3 4 3 2 2 4 7 7 6 6 6 4 3 3 2 3 6 9 10 11 12 13 15 16 16 17 18 19 20 21 22 23 23 24 25 26 27 28 28 26 24 21 19 20 21 22 23 24 22 18 15 13 11 10 9 9 7 7 8 9 9 10 10 10 10 10 9 8 7 6 5 6 6 7 8 9 8 8 7 7 7 7 7
1 2 3 4 2 2 2 5 9 9 7 6 6 5 4 3 1 2 4 9 12 13 14 15 18 19 19 20 20 21 22 21 21 21 22 22 23 23 23 24 24 24 23 21 20 20 21 21 22 21 19 15 13 11 10 9 8 7 7 7 8 9 9 9 10 10 11 10 9 8 7 6 6 7 7 8 9 9 8 7 6 6 5 6 7
1 2 3 3 2 0 1 4 8 10 9 6 6 7 7 5 2 2 4 8 12 14 15 17 19 21 22 23 23 23 23 23 23 23 24 24 24 23 22 21 22 22 22 22 21 20 19 19 18 17 15 13 11 10 9 8 7 6 6 7 9 10 10 10 10 11 11 10 10 9 8 8 8 8 8 8 9 10 8 7 5 4 4 5 6
2 2 2 2 2 2 2 3 6 10 10 8 7 7 8 7 4 2 3 7 11 14 16 18 20 22 23 24 25 25 25 25 26 26 26 26 25 23 22 21 20 21 21 21 20 18 16 15 15 14 13 12 11 9 9 9 8 7 6 6 8 10 10 10 11 12 12 11 10 10 9 9 9 9 9 9 9 8 7 6 4 3 3 4 6
4 4 3 3 3 3 4 4 5 7 9 10 9 9 9 8 6 4 4 6 9 13 16 18 20 21 22 23 24 26 27 27 27 27 27 26 25 24 22 20 19 19 19 19 17 16 14 13 12 12 12 12 11 11 10 10 9 8 7 6 8 9 10 10 11 11 11 11 10 10 10 10 10 10 10 9 8 7 6 4 2 2 3 5 5
6 5 4 4 5 5 5 6 6 7 7 9 10 10 10 9 8 7 6 6 8 11 14 17 19 20 21 22 23 25 26 27 27 26 26 25 25 24 22 20 18 17 17 15 14 13 13 12 12 11 11 13 13 13 12 11 9 8 6 6 8 10 11 11 11 11 11 11 11 10 10 10 10 10 10 8 7 6 4 2 1 1 4 7 6
5 6 6 6 6 7 7 6 7 8 8 9 10 10 11 10 9 9 9 8 8 9 13 17 18 19 20 22 23 25 26 26 25 25 25 25 24 23 22 20 18 16 14 12 12 12 13 13 12 12 12 13 14 15 14 13 10 8 6 6 8 10 11 11 10 10 11 11 10 10 10 11 11 10 9 8 7 5 3 2 1 2 5 8 7
5 6 6 6 6 7 7 7 8 10 10 9 9 10 10 10 10 10 11 10 10 9 12 16 19 19 20 22 24 26 26 26 25 25 24 24 24 23 22 20 18 16 14 12 13 13 12 12 11 11 11 13 14 14 13 12 10 8 7 7 8 10 11 10 10 10 11 11 11 11 11 11 11 10 9 8 6 5 3 2 2 3 7 10 9
5 5 6 5 5 5 6 6 8 9 10 10 10 10 11 11 11 11 11 12 12 10 10 13 17 20 21 23 25 26 26 26 26 26 25 24 24 23 22 20 18 16 15 15 15 14 12 11 11 10 10 11 12 12 10 9 8 7 6 6 8 10 11 11 10 9 9 10 11 11 11 11 11 10 9 8 7 5 4 3 3 4 9 11 10
5 5 5 5 5 4 4 4 5 7 9 11 11 12 12 12 12 12 12 12 13 13 12 12 14 17 21 23 25 26 27 27 27 27 26 25 24 23 23 21 19 17 17 17 17 15 13 12 11 10 10 10 11 11 10 9 9 8 7 6 6 7 7 8 8 9 9 10 11 11 10 11 10 10 9 9 7 6 5 4 4 6 10 12 11
7 6 7 7 6 5 4 3 3 5 6 8 10 11 12 13 14 14 13 13 14 15 15 14 14 15 18 21 24 26 27 27 27 27 27 26 25 25 24 23 21 19 19 19 18 16 14 13 12 10 9 9 10 10 10 10 10 10 9 7 6 5 5 6 7 8 8 9 10 10 10 10 10 10 10 9 8 7 6 5 4 6 11 13 12
10 9 9 9 8 7 6 6 6 6 7 7 8 9 10 11 13 15 15 15 15 15 17 17 17 16 16 18 21 24 26 27 27 27 27 27 26 26 26 25 23 21 21 21 19 17 15 15 13 11 10 10 9 9 10 10 10 11 11 10 9 7 6 6 7 7 8 9 10 11 10 10 10 11 11 11 10 9 8 6 5 7 12 15 13
13 12 11 11 10 10 9 9 9 10 10 10 10 11 11 11 12 14 16 17 18 18 18 19 19 20 19 19 19 21 23 25 26 27 27 27 27 27 27 27 26 24 23 23 21 19 18 17 16 14 12 12 11 10 10 10 11 11 11 11 10 9 8 8 8 8 9 10 12 12 11 11 11 12 12 12 11 10 9 8 6 7 12 15 14
14 14 14 14 14 13 13 12 12 12 12 12 13 13 13 13 13 14 15 17 18 19 19 19 20 21 22 22 22 22 23 24 26 27 27 28 27 27 28 28 28 27 26 24 23 21 20 19 19 17 15 14 13 12 12 12 12 11 11 11 11 10 10 9 9 9 11 12 13 13 13 13 13 14 13 12 11 11 11 9 8 8 13 16 15
16 16 16 17 17 16 15 15 15 14 14 14 15 15 15 15 15 15 16 17 19 19 19 18 18 19 20 22 24 24 25 26 26 26 26 27 27 28 28 28 29 29 29 27 25 24 23 22 22 20 19 18 16 15 15 16 15 13 12 12 12 11 11 11 10 11 12 13 14 15 15 15 15 15 14 13 13 13 12 11 9 9 13 17 16
18 18 19 20 20 20 19 19 19 18 18 17 17 17 17 17 16 16 18 20 21 21 20 19 18 18 18 19 21 23 25 26 27 27 27 27 27 29 29 29 30 30 30 29 28 27 26 25 24 23 22 21 20 19 18 19 17 15 14 14 14 14 13 12 12 12 13 14 15 16 17 16 17 17 16 15 15 15 14 12 11 11 14 17 16
Wind_Direction
239 239 233 227 225 221 219 218 218 219 219 218 219 220 221 224 225 227 228 228 229 230 232 235 240 244 249 255 250 239 234 235 237 238 240 245 252 256 258 258 257 256 257 258 257 258 261 265 268 270 273 277 280 282 284 286 286 286 287 289 289 287 284 284 285 284 285 289 290 291 294 292 287 279 271 267 256 251 225 157 153 135 106 116 124
238 241 239 232 229 227 224 222 219 220 221 221 221 221 223 226 227 228 230 232 232 233 235 239 245 249 253 257 252 240 235 236 238 240 242 246 252 257 258 256 253 251 250 250 250 252 257 261 264 269 273 276 277 280 285 287 287 286 286 287 286 283 282 283 284 281 281 285 289 289 288 281 275 268 260 257 257 266 275 126 127 117 115 128 138
243 245 245 241 236 231 229 227 224 222 222 222 223 223 224 226 227 228 231 234 236 236 237 241 247 253 257 256 247 236 234 238 240 243 245 248 252 255 256 254 249 246 244 244 245 248 254 258 261 267 269 270 274 278 282 284 283 283 285 285 282 281 283 284 285 284 281 280 279 280 283 283 273 265 258 253 259 273 272 129 123 123 132 150 203
252 248 249 247 242 238 233 230 228 226 224 223 224 225 226 227 228 229 232 235 237 237 238 242 247 253 256 251 239 232 233 238 242 247 248 249 252 253 254 251 246 243 241 240 242 246 251 254 257 262 264 267 271 275 278 280 280 282 284 283 281 281 283 285 284 282 281 279 274 271 276 275 260 255 254 250 246 236 213 147 119 105 281 254 246
248 241 244 247 245 241 238 235 233 231 228 226 226 227 228 230 231 231 233 235 237 237 238 242 245 249 250 242 233 232 234 238 243 248 248 248 250 250 249 247 243 241 239 239 241 245 248 252 256 259 261 264 268 273 278 280 279 280 281 282 283 281 282 283 279 274 274 273 268 255 245 236 232 235 230 221 215 203 183 163 146 310 291 262 250
248 240 239 242 245 243 241 240 237 235 233 231 230 229 230 232 232 233 234 236 236 237 239 240 241 243 240 233 229 232 236 239 244 249 248 245 246 246 244 242 241 239 237 238 241 244 247 251 256 259 258 260 264 271 276 277 277 279 280 281 281 281 282 280 275 269 261 255 249 235 220 212 214 219 210 196 193 194 183 161 139 148 251 235 236
249 247 242 240 243 243 242 242 241 241 239 237 235 235 234 233 233 234 236 236 237 239 239 238 237 238 234 229 229 232 237 240 243 248 247 244 243 241 238 238 239 238 237 238 241 245 249 253 255 255 254 257 262 268 272 273 274 276 278 279 281 284 282 276 272 264 247 239 235 224 214 209 208 207 196 182 179 176 172 182 164 158 180 193 196
249 249 244 240 242 243 244 245 245 245 244 241 240 239 238 237 236 237 238 239 239 240 241 240 239 239 237 233 231 231 235 239 242 244 245 243 241 238 236 237 238 238 239 240 243 246 250 252 252 251 251 254 261 265 267 268 270 273 277 283 287 288 284 275 266 246 232 240 236 216 205 201 200 195 182 180 183 167 164 212 215 172 182 188 180
250 246 241 241 242 242 244 245 246 247 246 244 241 239 239 239 239 239 240 240 241 242 243 244 244 243 239 235 232 230 233 239 242 242 243 242 240 239 238 238 239 240 241 241 242 246 248 247 245 244 247 252 258 263 264 264 270 277 284 290 288 283 278 256 237 228 225 232 224 206 196 192 193 191 182 182 191 180 176 211 209 177 189 202 197
248 245 244 247 247 245 243 241 242 243 243 241 239 238 237 238 239 240 240 241 241 242 244 246 246 245 240 235 232 231 234 239 242 242 242 240 238 239 240 241 242 243 242 240 238 238 240 240 239 240 245 250 254 260 264 266 275 285 291 291 280 270 246 218 224 220 209 215 212 201 196 193 192 193 190 188 199 203 199 226 222 189 197 223 234
249 248 250 254 255 252 247 243 239 238 238 237 236 235 234 235 237 238 239 241 241 242 243 245 246 244 238 233 231 232 236 239 242 243 242 238 237 238 240 242 244 245 245 243 240 238 237 236 237 242 247 249 253 258 266 274 286 294 293 281 245 199 160 198 212 192 189 207 205 197 200 200 192 191 195 198 202 207 211 232 241 225 234 254 262
249 249 252 255 255 253 250 247 244 240 239 238 237 236 235 234 234 235 238 239 240 241 241 242 243 240 235 232 232 234 237 241 244 244 242 239 237 237 239 244 247 249 250 247 242 239 237 237 240 245 248 251 256 263 272 282 293 291 274 245 205 176 155 152 159 165 185 204 202 196 198 202 197 193 198 202 200 204 214 231 246 252 261 269 271
249 251 253 255 254 253 251 250 248 245 243 241 240 240 239 237 234 233 235 236 238 239 238 239 240 236 232 231 232 236 239 242 244 244 242 239 238 238 241 245 248 249 249 246 239 234 235 237 239 240 243 251 259 265 272 282 288 271 235 210 195 185 173 157 148 158 176 189 212 209 198 200 204 196 191 193 192 198 216 233 244 255 266 275 280
252 254 255 254 254 254 254 254 253 251 249 246 245 245 244 243 240 238 237 236 236 236 235 237 237 234 232 232 234 238 241 242 242 244 243 240 238 241 243 246 250 250 247 243 237 234 235 235 236 240 242 245 255 264 275 282 274 242 214 200 185 175 169 160 153 158 170 182 211 213 194 188 195 188 179 179 183 194 217 235 247 263 282 300 325
260 259 257 253 251 251 253 255 256 255 253 250 249 248 248 247 246 246 245 242 239 236 234 235 236 235 233 233 237 240 241 242 244 245 244 241 239 241 243 246 251 247 240 236 235 236 237 234 235 240 234 233 248 261 275 284 258 221 201 188 173 163 157 150 148 150 159 168 181 193 186 177 177 178 176 174 176 183 202 231 267 301 318 331 342
273 268 263 257 251 250 251 252 253 254 253 252 251 251 251 250 249 249 250 249 245 240 236 235 235 235 235 236 239 242 241 242 244 247 247 243 239 240 243 246 248 242 235 234 235 235 235 232 231 228 220 226 241 239 240 268 244 208 191 177 166 160 150 143 143 147 155 166 173 181 182 174 168 169 165 160 157 163 180 259 301 309 324 333 334
283 277 272 265 259 256 255 254 254 254 254 253 253 254 254 252 249 250 252 253 251 246 241 239 237 237 238 239 240 242 243 243 245 248 250 247 240 237 239 244 248 247 242 238 237 234 229 222 218 217 216 223 229 214 211 228 206 192 183 170 163 158 150 146 150 156 164 173 175 176 175 167 160 157 152 149 154 164 169 323 319 319 328 327 319
292 284 279 272 266 263 261 260 260 260 259 258 257 258 259 257 253 250 250 252 252 249 245 243 243 244 246 245 244 245 245 246 248 250 252 252 246 240 238 239 243 245 240 235 234 231 218 207 206 214 215 215 211 200 190 187 185 183 176 167 164 160 154 156 162 164 166 170 171 172 171 163 157 157 155 158 163 143 91 352 323 328 322 321 351
295 287 280 273 269 267 264 264 264 265 265 263 261 261 262 261 258 252 248 248 250 249 246 244 245 247 250 251 250 250 250 250 251 252 253 253 249 242 239 236 236 237 235 233 229 215 200 193 202 213 210 205 198 186 175 172 174 174 171 170 171 164 156 158 165 164 163 165 166 167 168 162 159 162 154 142 126 99 91 194 173 84 65 41 40
295 289 283 277 273 270 267 264 263 263 263 261 261 262 261 260 257 253 250 248 249 249 247 246 247 249 251 252 252 252 252 251 251 252 253 254 251 246 241 236 233 232 228 223 216 203 189 189 200 204 201 196 186 173 166 167 172 175 172 172 178 170 160 158 161 161 162 164 165 167 170 164 157 153 144 136 143 149 155 137 95 70 56 48 48
303 304 297 287 280 275 269 263 258 259 260 257 256 258 257 255 254 253 252 249 248 248 247 247 248 250 251 251 250 250 250 252 253 254 256 256 249 240 234 229 228 228 221 213 209 203 195 194 198 195 192 187 178 170 166 169 181 185 170 161 171 172 164 160 158 158 160 164 167 170 169 162 157 156 157 159 161 155 113 74 67 57 48 45 45
302 317 313 302 292 280 270 261 254 255 258 256 254 253 251 251 253 256 255 249 246 246 246 246 247 250 251 251 251 250 251 253 256 259 264 261 247 237 233 231 229 228 221 213 209 204 197 196 195 190 186 181 173 170 171 174 180 173 158 160 171 170 161 157 157 157 159 162 166 167 160 160 163 163 166 166 148 114 76 56 50 43 37 35 34
278 299 310 316 312 293 280 275 267 262 261 259 257 254 251 250 253 257 256 251 247 246 245 245 247 249 252 253 255 256 256 255 256 259 262 258 247 242 243 239 233 229 223 215 207 199 195 196 192 184 179 175 169 168 173 172 163 156 157 168 170 160 151 151 151 154 158 159 163 165 160 159 165 165 162 151 119 91 60 36 30 26 22 20 18
265 265 274 301 312 312 307 299 291 286 281 276 270 264 259 255 254 258 259 255 252 250 250 251 251 252 254 255 258 260 260 258 258 259 258 255 249 247 248 241 232 225 218 212 207 200 194 192 185 174 169 168 165 164 165 158 151 155 165 169 161 150 149 153 152 155 160 161 167 171 162 158 159 157 145 122 98 76 42 21 17 16 13 7 3
264 255 252 265 284 304 311 309 312 312 304 295 288 281 275 269 266 270 268 261 258 257 258 259 258 257 258 257 258 258 258 258 259 257 257 252 240 234 236 235 228 219 210 204 202 193 182 173 168 162 160 163 162 157 152 149 152 162 166 161 155 152 155 157 156 161 167 167 172 172 163 154 148 137 121 102 80 48 22 11 9 9 4 357 358
272 259 248 246 260 286 300 310 321 326 338 36 58 53 47 36 6 333 298 277 270 264 261 263 261 257 254 253 255 256 255 255 252 243 235 226 216 212 214 211 205 201 194 186 179 170 160 159 164 163 161 162 159 153 151 155 162 167 162 159 163 162 161 163 162 167 175 174 170 164 153 144 136 124 111 94 60 10 357 358 358 359 358 355 4
279 266 247 235 241 265 281 299 321 341 66 92 89 87 91 91 80 63 45 6 296 265 263 266 265 264 261 258 260 260 256 254 247 226 202 192 195 193 165 159 167 168 165 159 155 151 151 157 163 161 158 159 159 159 161 165 169 168 164 166 172 166 163 164 162 169 180 177 166 153 140 132 127 121 120 128 242 277 310 351 346 347 359 8 37
281 274 252 230 229 250 264 278 302 348 97 106 108 105 100 93 82 68 59 53 48 28 324 293 281 285 286 275 266 259 249 239 206 167 146 130 136 137 113 115 134 145 148 145 144 148 153 155 156 156 158 163 165 168 171 172 174 173 170 173 176 173 172 173 170 174 178 172 158 142 130 127 129 133 151 181 205 210 172 57 341 10 70 96 117
276 272 260 245 238 242 241 238 243 192 117 113 117 116 108 98 87 75 68 64 60 52 39 18 340 321 328 281 240 208 178 149 133 133 132 120 104 113 142 155 152 150 149 149 153 156 155 154 156 160 164 168 171 175 177 176 175 175 176 178 178 177 179 179 178 180 176 163 148 136 131 135 144 150 163 179 179 163 143 134 137 127 125 137 138
284 280 276 273 263 236 210 196 200 188 145 127 127 128 120 111 104 93 79 71 66 59 50 46 58 99 116 137 154 150 142 136 137 141 142 138 128 126 149 162 160 155 157 162 164 160 156 155 160 164 168 173 176 178 179 176 175 175 176 177 179 179 178 176 178 179 169 155 147 143 142 149 155 152 155 166 162 150 144 142 138 129 129 137 137
307 303 302 297 285 264 211 185 189 186 164 146 142 143 137 128 124 119 105 83 74 69 65 67 82 113 135 141 147 151 148 142 145 151 152 148 143 141 151 161 162 162 164 164 161 157 157 159 163 166 173 178 180 178 175 174 176 176 175 175 176 179 179 176 175 173 166 162 163 160 154 156 158 149 144 150 152 149 145 141 135 130 131 135 135
320 317 319 314 296 288 264 189 190 188 171 157 154 157 151 143 140 139 135 121 104 94 94 95 99 121 146 152 154 160 161 155 154 156 156 155 154 153 157 163 164 164 166 166 162 160 162 164 164 169 177 180 175 169 165 164 168 172 174 175 174 174 176 175 171 170 174 177 174 166 161 159 155 143 135 138 143 145 143 140 137 136 136 137 138
328 334 337 327 307 287 253 190 195 195 176 158 153 157 154 155 162 160 152 144 135 130 135 136 130 136 154 165 173 173 163 156 156 158 156 156 156 156 158 163 165 164 165 167 166 164 165 167 168 172 176 173 164 156 151 151 154 161 168 173 172 169 170 170 170 174 180 180 175 170 167 162 151 132 126 131 136 141 142 142 143 147 148 145 142
330 14 1 344 328 289 222 191 196 194 175 155 148 153 154 158 171 177 174 166 153 145 148 152 153 158 166 173 180 176 162 153 153 154 155 155 156 158 159 161 164 165 167 171 170 166 166 169 170 171 170 165 158 150 143 140 142 148 158 167 172 170 170 172 175 179 180 178 178 177 171 161 147 128 127 132 137 141 143 142 145 153 160 159 153
55 53 23 4 8 50 155 167 165 169 164 151 143 147 156 166 182 192 192 184 167 154 151 149 147 152 161 168 172 168 159 152 152 155 156 157 159 161 162 162 163 165 168 171 171 167 167 170 170 168 167 164 157 148 140 134 132 135 144 158 169 174 176 176 175 176 179 181 181 179 171 161 147 133 132 135 138 140 141 142 145 156 167 170 164
101 63 32 19 27 52 99 147 152 151 151 148 149 157 165 176 200 207 201 193 178 163 156 148 142 144 151 157 159 157 153 152 153 156 158 161 164 166 167 165 164 164 166 170 171 169 169 171 169 166 166 162 155 149 143 136 133 134 139 155 171 179 182 177 173 175 180 183 182 178 171 162 153 146 144 142 140 139 137 135 138 150 167 178 178
81 56 35 26 25 49 95 141 154 159 160 161 170 183 189 193 229 244 209 195 181 167 162 157 150 149 152 153 152 152 152 154 157 160 164 168 172 173 172 168 164 163 164 169 171 169 169 171 170 167 166 163 158 156 153 147 143 142 147 161 175 181 180 174 173 178 183 183 182 177 170 163 157 151 147 146 143 139 134 130 130 140 158 175 181
18 27 24 9 354 15 129 144 156 165 174 176 178 185 190 194 217 248 210 195 182 172 169 167 161 157 157 156 156 157 159 160 164 168 172 174 176 177 177 173 168 166 166 168 171 170 170 171 172 172 171 170 170 170 167 164 159 155 155 166 177 179 177 174 174 180 185 186 183 176 170 168 163 152 146 146 142 136 131 128 125 128 147 167 176
331 341 328 319 309 261 221 187 167 169 177 184 187 191 194 197 208 227 209 196 187 178 174 173 171 167 165 164 164 166 168 169 172 175 176 177 179 180 180 178 174 171 169 170 173 174 173 172 174 177 180 183 185 188 187 184 177 168 166 175 183 184 183 181 181 183 185 186 185 178 173 172 166 156 149 147 141 133 128 125 118 116 141 161 165
304 304 289 279 275 257 238 221 198 186 187 192 198 204 205 203 208 222 222 206 196 188 182 179 177 176 175 175 174 175 175 175 176 177 178 180 181 183 184 184 181 178 176 177 179 180 181 180 180 183 189 194 199 203 204 199 189 179 176 183 189 191 190 188 185 183 183 184 186 182 176 175 173 166 158 153 144 134 125 121 110 112 151 162 161
283 277 269 266 258 248 242 231 218 210 207 208 210 214 216 214 214 218 222 221 210 199 191 186 184 184 185 185 183 182 182 181 181 181 182 183 183 184 186 188 188 186 185 187 188 189 192 195 195 197 201 203 206 211 213 208 199 192 187 187 189 192 193 189 184 181 183 187 188 183 180 182 182 174 164 157 152 144 137 132 121 159 171 172 172
270 255 261 270 258 245 243 237 223 215 215 218 219 220 221 221 219 217 219 222 220 212 203 196 192 191 192 192 190 188 188 188 187 187 187 188 187 187 188 192 196 198 199 200 200 197 197 199 203 208 212 211 211 213 215 214 211 209 208 203 196 196 198 196 188 184 187 191 189 185 186 188 185 177 169 165 161 157 157 173 234 208 184 180 182
270 252 260 270 262 248 243 240 228 217 213 215 219 221 222 222 219 217 218 220 221 221 215 208 203 199 197 198 197 195 193 194 194 194 194 194 194 193 195 198 203 205 206 209 208 202 195 194 198 207 216 218 218 219 221 222 221 219 216 211 205 202 204 204 200 196 196 194 191 191 193 192 188 182 177 176 174 171 176 205 241 208 189 186 189
283 264 258 257 250 240 236 234 227 218 212 212 217 219 220 220 218 216 216 218 221 224 223 218 214 210 206 203 203 201 200 199 199 200 200 201 202 203 205 207 208 206 204 202 200 196 191 187 189 196 205 211 214 217 217 217 216 212 206 199 197 201 206 211 212 211 205 198 196 198 198 196 193 190 187 188 189 186 191 218 236 205 193 193 196
285 271 258 247 236 229 228 229 225 218 214 215 218 219 219 219 217 216 217 219 221 224 226 225 222 219 215 212 210 208 207 206 205 206 207 209 211 213 214 214 213 211 206 200 195 193 190 188 186 188 189 191 195 200 204 205 203 201 196 188 185 192 201 208 211 212 207 202 203 207 206 202 200 198 197 198 198 196 204 229 236 208 198 200 204
275 270 261 252 244 239 240 246 249 243 235 230 228 226 223 221 217 216 217 220 222 225 227 227 226 224 222 220 217 215 214 212 212 212 212 215 218 220 222 221 219 215 209 204 201 199 196 193 191 193 193 189 185 188 196 202 203 201 201 201 202 203 206 210 216 219 216 212 213 215 214 211 208 205 205 206 206 205 215 233 240 214 203 205 210
265 265 262 258 254 251 252 258 264 267 266 262 254 245 236 228 223 220 219 219 221 223 226 228 229 229 227 225 223 221 220 219 218 218 218 219 222 224 226 227 224 218 212 209 207 205 203 200 200 203 208 208 202 197 199 203 204 204 206 209 213 218 224 231 238 240 234 226 223 221 220 219 216 213 212 212 212 213 220 233 241 221 208 209 213
258 260 260 259 256 253 253 256 260 263 267 269 268 263 255 244 234 228 224 223 222 222 223 227 230 232 232 231 228 226 225 224 224 223 222 222 224 226 229 230 229 224 218 214 213 212 209 209 209 211 215 218 217 215 214 213 212 212 215 216 217 223 232 240 248 251 245 237 230 225 222 222 221 220 219 218 217 218 224 235 242 227 212 211 215
254 257 259 260 260 259 258 258 260 262 264 267 268 268 266 259 251 242 234 229 226 225 225 227 230 232 235 235 234 232 230 229 228 228 228 227 227 227 229 231 231 228 223 220 219 217 215 216 217 218 221 223 220 219 222 223 220 221 224 225 224 225 232 239 246 251 251 246 238 229 224 223 223 224 224 222 220 222 227 235 242 231 215 212 217
250 254 257 260 261 261 261 261 263 264 265 265 266 267 268 265 260 253 243 234 229 226 226 228 230 232 234 236 236 236 235 234 233 233 232 231 230 230 229 230 231 230 228 226 224 222 221 222 222 223 226 228 225 222 225 228 227 228 232 235 233 232 234 239 243 248 252 252 245 235 227 224 223 223 223 221 221 224 228 234 240 233 218 215 220
249 250 253 256 258 259 259 260 261 262 263 263 264 265 266 266 264 258 249 240 234 230 228 228 230 233 235 236 237 238 239 239 239 239 238 235 233 232 231 230 230 230 230 230 228 227 226 226 226 227 230 232 230 226 228 232 234 234 236 237 237 237 239 241 244 248 253 254 247 237 229 225 224 224 223 221 221 224 227 233 239 234 222 220 225